DateTimeUTC,F1_A11,F1_S11,BsB_S11,BsG_S11,BsR_S11,BbsB_S11,BbsG_S11,BbsR_S11,BaB_A11,BaG_A11,BaR_A11,Tu_S11,T_S11,Uu_S11,U_S11,P_S11,T1_A11
2021-10-27T11:00:00Z,00000200,21000000,,,,,,,-000.39,0000.19,-000.26,17.8,24.9,,00.0,0646.1,31.0
2021-10-27T11:01:00Z,00000200,21000000,,,,,,,0000.29,-000.50,0000.39,17.8,24.9,,00.0,0646.1,31.0
2021-10-27T11:02:00Z,00000200,21000000,,,,,,,0000.32,0000.57,0000.05,17.8,24.9,,00.0,0646.1,31.0
2021-10-27T11:03:00Z,00000200,61000000,,,,,,,0019.29,0018.64,0016.02,17.8,25.0,,00.0,0646.1,31.1
2021-10-27T11:04:00Z,00040200,41000000,0003.57,0003.12,0002.71,0000.23,0000.83,0000.18,0004.35,0005.25,0006.71,18.2,24.9,,00.0,0646.7,31.1
2021-10-27T11:05:00Z,00040200,01000000,0001.77,0001.44,0000.75,0000.29,0000.08,-000.23,-000.20,-000.58,-000.04,18.3,24.9,,00.0,0646.7,31.1
2021-10-27T11:06:00Z,00040200,01000000,0002.10,0001.40,0000.56,0000.54,0000.17,0000.05,0000.69,0000.87,0000.65,18.4,24.9,,00.0,0646.7,31.1
2021-10-27T11:07:00Z,00040200,01000000,0001.36,0001.10,0000.46,0000.37,0000.19,-000.17,0000.47,0000.61,0000.55,18.4,25.0,,00.0,0646.7,31.1
2021-10-27T11:08:00Z,00040200,01000000,0001.85,0001.18,0000.47,0000.10,0000.01,0000.12,0000.87,0000.55,0000.72,18.4,25.0,,00.0,0646.8,31.1
2021-10-27T11:09:00Z,00040200,01000000,0002.07,0001.07,0000.38,0000.15,0000.25,0000.20,0000.41,0000.41,0000.12,18.3,25.0,,00.0,0646.8,31.0
2021-10-27T11:10:00Z,00040200,01000000,0001.00,0000.50,0000.32,0000.52,0000.22,0000.01,0000.06,0000.35,-000.23,18.3,24.9,,00.0,0646.8,31.0
2021-10-27T11:11:00Z,00040200,01000000,0001.86,0001.11,0000.06,0000.54,0000.25,-000.15,0000.13,-000.27,0000.14,18.2,24.9,,00.0,0646.8,31.0
2021-10-27T11:12:00Z,00040200,01000000,0001.74,0001.21,0000.81,0000.28,0000.25,-000.07,0000.89,0001.03,0000.89,18.2,24.9,,00.0,0646.8,31.0
2021-10-27T11:13:00Z,00040200,01000000,0001.47,0001.50,0000.58,-000.02,0000.28,-000.03,0000.60,0000.66,0000.53,18.2,24.8,,00.0,0646.8,31.0
2021-10-27T11:14:00Z,00040200,01000000,0002.70,0001.57,0000.92,0000.87,0000.36,0000.21,0000.84,0000.93,0000.59,18.2,24.9,,00.0,0646.8,31.1
2021-10-27T11:15:00Z,00040200,01000000,0001.68,0001.36,0000.74,-000.52,0000.34,-000.05,0001.42,0000.98,0000.53,18.3,24.9,,00.0,0646.8,31.1
2021-10-27T11:16:00Z,00040200,01000000,0001.67,0001.40,0000.60,0000.42,0000.41,0000.08,0000.67,0000.53,0000.60,18.3,24.9,,00.0,0646.9,31.1
2021-10-27T11:17:00Z,00040200,01000000,0001.44,0001.13,0000.66,-000.05,0000.09,0000.28,0000.98,0001.20,0000.64,18.4,25.0,,00.0,0646.9,31.1
2021-10-27T11:18:00Z,00040200,01000000,0002.29,0001.13,0000.82,0000.35,0000.01,-000.11,0001.49,0000.88,0001.45,18.4,25.0,,00.0,0646.9,31.1
2021-10-27T11:19:00Z,00040200,01000000,0001.67,0001.03,0001.07,0000.13,0000.23,0000.22,0000.80,0000.99,0000.65,18.5,25.0,,00.0,0646.9,31.1
2021-10-27T11:20:00Z,00040200,01000000,0001.07,0000.98,0000.62,0000.14,0000.21,0000.57,0001.14,0001.43,0000.88,18.5,25.0,,00.0,0646.9,31.1
2021-10-27T11:21:00Z,00040200,01000000,0002.18,0001.29,0000.42,-000.13,0000.03,-000.06,0001.24,0000.77,0000.72,18.6,25.1,,00.0,0646.9,31.1
2021-10-27T11:22:00Z,00040200,01000000,0001.44,0001.38,0000.61,0000.47,0000.19,-000.26,0001.37,0001.76,0000.78,18.7,25.1,,00.0,0646.9,31.1
2021-10-27T11:23:00Z,00040200,01000000,0001.62,0001.37,0000.67,-000.15,0000.41,-000.07,0001.38,0000.96,0001.00,18.6,25.1,,00.0,0646.9,31.1
2021-10-27T11:24:00Z,00040200,01000000,0002.03,0001.69,0000.94,0000.01,0000.28,-000.03,0001.29,0000.98,0000.88,18.6,25.1,,00.0,0646.9,31.1
2021-10-27T11:25:00Z,00040200,01000000,0002.09,0001.18,0000.70,0000.31,0000.56,0000.04,0000.85,0000.87,0000.46,18.5,25.1,,00.0,0646.9,31.0
2021-10-27T11:26:00Z,00040200,01000000,0001.51,0001.57,0000.66,0000.18,0000.32,-000.12,0000.88,0000.86,0000.52,18.5,25.0,,00.0,0646.9,31.0
2021-10-27T11:27:00Z,00040200,01000000,0001.52,0001.13,0000.57,0000.43,0000.41,0000.09,0001.69,0001.42,0001.13,18.5,25.0,,00.0,0646.9,31.1
2021-10-27T11:28:00Z,00040200,01000000,0001.88,0001.19,0000.33,0000.18,0000.27,0000.28,0001.22,0001.26,0000.85,18.5,25.0,,00.0,0647.0,31.1
2021-10-27T11:29:00Z,00040200,01000000,0002.35,0001.27,0000.49,0000.21,0000.01,-000.41,0000.29,0000.38,0000.66,18.5,25.1,,00.0,0647.0,31.1
2021-10-27T11:30:00Z,00040200,01000000,0002.30,0001.28,0000.71,0000.52,0000.19,0000.13,0000.74,0000.66,0000.12,18.6,25.1,,00.0,0647.0,31.1
2021-10-27T11:31:00Z,00040200,01000000,0001.32,0001.09,0000.71,0000.37,0000.20,0000.09,0001.35,0001.08,0001.01,18.7,25.1,,00.0,0647.0,31.1
2021-10-27T11:32:00Z,00040200,01000000,0002.44,0001.17,0000.99,0000.36,0000.44,0000.20,0001.20,0001.06,0000.75,18.7,25.2,,00.0,0647.0,31.1
2021-10-27T11:33:00Z,00040200,01000000,0002.05,0001.45,0000.54,0000.89,0000.14,0000.24,0001.22,0001.14,0001.03,18.8,25.2,,00.0,0647.0,31.1
2021-10-27T11:34:00Z,00040200,01000000,0001.80,0001.51,0000.94,0000.72,0000.38,0000.03,0001.52,0001.43,0000.87,18.8,25.2,,00.0,0647.0,31.1
2021-10-27T11:35:00Z,00040200,01000000,0002.62,0001.45,0000.73,-000.09,0000.07,0000.13,0000.85,0001.07,0000.84,18.9,25.3,,00.0,0647.0,31.1
2021-10-27T11:36:00Z,00040200,01000000,0001.33,0001.24,0000.19,0000.88,0000.36,-000.02,0001.69,0001.19,0001.07,18.8,25.3,,00.0,0647.0,31.1
2021-10-27T11:37:00Z,00040200,01000000,0002.27,0001.37,0000.84,0000.32,0000.22,0000.12,0000.67,0001.10,0001.11,18.8,25.2,,00.0,0647.0,31.1
2021-10-27T11:38:00Z,00040200,01000000,0001.47,0001.26,0000.93,0000.64,0000.43,-000.05,0001.14,0000.96,0000.50,18.7,25.2,,00.0,0647.0,31.1
2021-10-27T11:39:00Z,00040200,01000000,0002.33,0000.96,0000.88,0000.28,0000.23,0000.09,0001.11,0000.82,0000.50,18.6,25.2,,00.0,0647.1,31.1
2021-10-27T11:40:00Z,00040200,01000000,0002.08,0001.48,0000.59,0000.25,0000.01,-000.49,0000.76,0000.99,0000.82,18.6,25.1,,00.0,0647.1,31.0
2021-10-27T11:41:00Z,00040200,01000000,0001.67,0001.25,0000.47,0000.82,0000.39,0000.01,0001.51,0001.00,0000.63,18.5,25.1,,00.0,0647.1,31.0
2021-10-27T11:42:00Z,00040200,01000000,0001.62,0000.99,0000.48,0000.19,0000.50,-000.22,0001.11,0001.13,0000.56,18.5,25.1,,00.0,0647.1,31.0
2021-10-27T11:43:00Z,00040200,01000000,0002.67,0001.07,0000.70,0000.23,0000.14,0000.30,0000.82,0000.64,0001.06,18.5,25.1,,00.0,0647.2,31.0
2021-10-27T11:44:00Z,00040200,01000000,0002.49,0001.01,0000.40,0000.16,0000.29,0000.10,0001.37,0001.32,0000.76,18.6,25.1,,00.0,0647.2,31.1
2021-10-27T11:45:00Z,00040200,01000000,0002.03,0000.88,0000.56,0000.05,-000.05,0000.07,0000.67,0000.61,0000.39,18.6,25.1,,00.0,0647.2,31.1
2021-10-27T11:46:00Z,00040200,01000000,0001.54,0001.34,0000.76,0000.03,0000.15,-000.03,0000.73,0001.40,0000.89,18.6,25.1,,00.0,0647.3,31.1
2021-10-27T11:47:00Z,00040200,01000000,0001.12,0001.38,0000.55,0000.97,0000.02,-000.28,0000.67,-000.02,0000.59,18.7,25.2,,00.0,0647.3,31.1
2021-10-27T11:48:00Z,00040200,01000000,0001.58,0001.36,0000.66,0000.47,0000.46,0000.12,0000.88,0000.55,0000.53,18.7,25.2,,00.0,0647.3,31.1
2021-10-27T11:49:00Z,00040200,01000000,0002.78,0001.51,0000.95,0000.60,0000.34,0000.15,0001.36,0001.13,0000.95,18.8,25.2,,00.0,0647.3,31.1
2021-10-27T11:50:00Z,00040200,01000000,0002.05,0001.10,0000.64,0000.70,0000.32,-000.09,0000.66,0001.08,0000.42,18.7,25.2,,00.0,0647.4,31.1
2021-10-27T11:51:00Z,00040200,01000000,0001.39,0001.17,0000.41,0000.34,0000.25,0000.07,0001.18,0001.26,0000.84,18.7,25.2,,00.0,0647.4,31.1
2021-10-27T11:52:00Z,00040200,01000000,0001.69,0001.38,0000.73,0000.26,0000.31,0000.16,0001.06,0001.00,0000.30,18.6,25.2,,00.0,0647.4,31.0
2021-10-27T11:53:00Z,00040200,01000000,0002.07,0001.28,0000.89,0000.51,0000.19,-000.23,0000.73,0000.36,0001.13,18.6,25.1,00.0,00.0,0647.4,31.0
2021-10-27T11:54:00Z,00040200,01000000,0002.02,0001.09,0001.05,0000.30,0000.38,0000.11,0001.13,0000.99,0000.63,18.5,25.1,,00.0,0647.5,31.0
2021-10-27T11:55:00Z,00040200,01000000,0001.36,0001.14,0000.49,0000.15,0000.20,-000.01,0000.79,0000.43,0000.38,18.4,25.1,00.0,00.0,0647.6,31.0
2021-10-27T11:56:00Z,00040200,01000000,0000.55,0001.19,0000.51,0000.32,0000.25,-000.03,0000.72,0000.51,0000.51,18.4,25.0,00.0,00.0,0647.6,31.0
2021-10-27T11:57:00Z,00040200,41000000,,,,,,,-003.10,-002.45,-002.10,18.5,25.0,,00.0,0647.6,31.0
2021-10-27T11:58:00Z,00040200,61000000,,,,,,,0001.69,0001.61,0001.27,18.2,25.1,,00.0,0646.8,31.0
2021-10-27T11:59:00Z,00040200,21000000,,,,,,,0000.94,0000.81,0000.67,18.2,25.2,,00.0,0646.8,31.0
